Meteo pe oră la Bolshoe Hodyashevo

Astăzi, 9 Mai, Duminică

Timp Temperatura Precipitaţii Vânt Presiune Umiditate
00:00 +10°C° 0 mm 4 m/s 752 mmHg 84%
01:00 +10°C° 0 mm 4 m/s 752 mmHg 82%
02:00 +10°C° 0 mm 4 m/s 752 mmHg 81%
03:00 +10°C° 0 mm 3 m/s 752 mmHg 79%
04:00 +10°C° 0 mm 3 m/s 752 mmHg 78%
05:00 +11°C° 0 mm 3 m/s 752 mmHg 77%
06:00 +12°C° 0 mm 3 m/s 752 mmHg 76%
07:00 +14°C° 0 mm 4 m/s 752 mmHg 70%
08:00 +17°C° 0 mm 4 m/s 752 mmHg 63%
09:00 +19°C° 0 mm 5 m/s 752 mmHg 57%
10:00 +19°C° 0 mm 5 m/s 752 mmHg 56%
11:00 +19°C° 0 mm 5 m/s 752 mmHg 55%
12:00 +20°C° 0 mm 5 m/s 752 mmHg 55%
13:00 +20°C° 0 mm 5 m/s 752 mmHg 57%
14:00 +20°C° 0 mm 5 m/s 752 mmHg 59%
15:00 +20°C° 0 mm 4 m/s 752 mmHg 61%
16:00 +19°C° 0 mm 4 m/s 752 mmHg 64%
17:00 +19°C° 0 mm 4 m/s 752 mmHg 66%
18:00 +18°C° 0 mm 4 m/s 752 mmHg 69%
19:00 +17°C° 0.4 mm 3 m/s 752 mmHg 73%
20:00 +16°C° 0.4 mm 3 m/s 752 mmHg 77%
21:00 +14°C° 0.4 mm 3 m/s 752 mmHg 81%
22:00 +14°C° 0.2 mm 3 m/s 753 mmHg 83%
23:00 +14°C° 0.2 mm 2 m/s 753 mmHg 85%

Mâine, 10 Mai, Luni

Timp Temperatura Precipitaţii Vânt Presiune Umiditate
00:00 +14°C° 0.2 mm 2 m/s 753 mmHg 86%
01:00 +14°C° 0.1 mm 2 m/s 754 mmHg 89%
02:00 +13°C° 0.1 mm 2 m/s 754 mmHg 91%
03:00 +12°C° 0.1 mm 2 m/s 755 mmHg 94%
04:00 +13°C° 0 mm 2 m/s 755 mmHg 92%
05:00 +13°C° 0 mm 2 m/s 756 mmHg 91%
06:00 +13°C° 0 mm 2 m/s 756 mmHg 89%
07:00 +14°C° 0 mm 2 m/s 757 mmHg 85%
08:00 +14°C° 0 mm 3 m/s 757 mmHg 81%
09:00 +16°C° 0 mm 3 m/s 757 mmHg 77%
10:00 +15°C° 0 mm 4 m/s 758 mmHg 76%
11:00 +17°C° 0 mm 4 m/s 758 mmHg 74%
12:00 +17°C° 0 mm 4 m/s 759 mmHg 73%
13:00 +15°C° 0 mm 5 m/s 759 mmHg 75%
14:00 +14°C° 0 mm 5 m/s 760 mmHg 77%
15:00 +13°C° 0 mm 6 m/s 760 mmHg 78%
16:00 +13°C° 0 mm 6 m/s 760 mmHg 80%
17:00 +12°C° 0 mm 5 m/s 761 mmHg 83%
18:00 +10°C° 0 mm 5 m/s 761 mmHg 85%
19:00 +10°C° 0 mm 5 m/s 762 mmHg 86%
20:00 +9°C° 0 mm 5 m/s 762 mmHg 87%
21:00 +8°C° 0 mm 5 m/s 762 mmHg 89%
22:00 +8°C° 0 mm 5 m/s 763 mmHg 89%
23:00 +8°C° 0 mm 5 m/s 763 mmHg 89%

Poimâine, 11 Mai, Marţi

Timp Temperatura Precipitaţii Vânt Presiune Umiditate
00:00 +7°C° 0 mm 4 m/s 763 mmHg 89%
01:00 +7°C° 0 mm 4 m/s 763 mmHg 90%
02:00 +6°C° 0 mm 4 m/s 763 mmHg 90%
03:00 +6°C° 0 mm 4 m/s 764 mmHg 90%
04:00 +6°C° 0 mm 4 m/s 764 mmHg 88%
05:00 +7°C° 0 mm 5 m/s 764 mmHg 86%
06:00 +7°C° 0 mm 5 m/s 764 mmHg 84%
07:00 +9°C° 0 mm 5 m/s 765 mmHg 78%
08:00 +11°C° 0 mm 4 m/s 765 mmHg 73%
09:00 +13°C° 0 mm 4 m/s 765 mmHg 68%
10:00 +14°C° 0 mm 4 m/s 765 mmHg 64%
11:00 +17°C° 0 mm 4 m/s 765 mmHg 59%
12:00 +18°C° 0 mm 4 m/s 765 mmHg 55%
13:00 +18°C° 0 mm 4 m/s 765 mmHg 53%
14:00 +19°C° 0 mm 4 m/s 765 mmHg 51%
15:00 +20°C° 0 mm 4 m/s 764 mmHg 49%
16:00 +19°C° 0 mm 3 m/s 765 mmHg 53%
17:00 +18°C° 0 mm 3 m/s 765 mmHg 57%
18:00 +18°C° 0 mm 3 m/s 765 mmHg 62%
19:00 +16°C° 0 mm 3 m/s 765 mmHg 65%
20:00 +14°C° 0 mm 3 m/s 765 mmHg 69%
21:00 +12°C° 0 mm 3 m/s 765 mmHg 73%
22:00 +11°C° 0 mm 3 m/s 765 mmHg 74%
23:00 +11°C° 0 mm 3 m/s 765 mmHg 75%

12 Mai, Miercuri

Timp Temperatura Precipitaţii Vânt Presiune Umiditate
00:00 +10°C° 0 mm 3 m/s 765 mmHg 77%
01:00 +10°C° 0 mm 3 m/s 765 mmHg 78%
02:00 +10°C° 0 mm 3 m/s 765 mmHg 79%
03:00 +9°C° 0 mm 2 m/s 765 mmHg 80%
04:00 +10°C° 0 mm 3 m/s 765 mmHg 79%
05:00 +11°C° 0 mm 3 m/s 765 mmHg 77%
06:00 +12°C° 0 mm 3 m/s 766 mmHg 76%
07:00 +14°C° 0 mm 4 m/s 766 mmHg 70%
08:00 +17°C° 0 mm 4 m/s 766 mmHg 64%
09:00 +19°C° 0 mm 4 m/s 766 mmHg 59%
10:00 +20°C° 0 mm 4 m/s 766 mmHg 56%
11:00 +21°C° 0 mm 4 m/s 766 mmHg 54%
12:00 +22°C° 0 mm 4 m/s 766 mmHg 51%
13:00 +22°C° 0 mm 4 m/s 765 mmHg 50%
14:00 +24°C° 0 mm 3 m/s 765 mmHg 48%
15:00 +24°C° 0 mm 3 m/s 765 mmHg 47%
16:00 +22°C° 0 mm 3 m/s 765 mmHg 51%
17:00 +21°C° 0 mm 3 m/s 765 mmHg 55%
18:00 +21°C° 0 mm 3 m/s 764 mmHg 59%
19:00 +19°C° 0 mm 3 m/s 764 mmHg 60%
20:00 +17°C° 0 mm 2 m/s 764 mmHg 61%
21:00 +15°C° 0 mm 2 m/s 764 mmHg 61%
22:00 +15°C° 0 mm 2 m/s 764 mmHg 62%
23:00 +14°C° 0 mm 2 m/s 764 mmHg 63%

13 Mai, Joi

Timp Temperatura Precipitaţii Vânt Presiune Umiditate
00:00 +13°C° 0 mm 2 m/s 764 mmHg 65%
01:00 +13°C° 0 mm 2 m/s 764 mmHg 66%
02:00 +13°C° 0 mm 2 m/s 764 mmHg 67%
03:00 +12°C° 0 mm 2 m/s 764 mmHg 67%
04:00 +13°C° 0 mm 2 m/s 764 mmHg 67%
05:00 +14°C° 0 mm 2 m/s 764 mmHg 67%
06:00 +14°C° 0 mm 2 m/s 764 mmHg 67%
07:00 +16°C° 0 mm 3 m/s 764 mmHg 61%
08:00 +18°C° 0 mm 3 m/s 764 mmHg 55%
09:00 +20°C° 0 mm 4 m/s 764 mmHg 50%
10:00 +21°C° 0 mm 4 m/s 764 mmHg 47%
11:00 +22°C° 0 mm 4 m/s 763 mmHg 43%
12:00 +23°C° 0 mm 4 m/s 763 mmHg 40%
13:00 +25°C° 0 mm 4 m/s 763 mmHg 41%
14:00 +25°C° 0 mm 4 m/s 763 mmHg 43%
15:00 +25°C° 0 mm 3 m/s 763 mmHg 44%
16:00 +25°C° 0 mm 3 m/s 762 mmHg 50%
17:00 +24°C° 0 mm 3 m/s 762 mmHg 56%
18:00 +23°C° 0 mm 2 m/s 762 mmHg 63%
19:00 +21°C° 0 mm 2 m/s 762 mmHg 64%
20:00 +19°C° 0 mm 2 m/s 762 mmHg 66%
21:00 +18°C° 0 mm 2 m/s 762 mmHg 68%
22:00 +17°C° 0 mm 2 m/s 762 mmHg 69%
23:00 +17°C° 0 mm 2 m/s 762 mmHg 70%

14 Mai, Vineri

Timp Temperatura Precipitaţii Vânt Presiune Umiditate
00:00 +16°C° 0 mm 1 m/s 762 mmHg 71%
01:00 +16°C° 0 mm 1 m/s 762 mmHg 73%
02:00 +16°C° 0 mm 1 m/s 762 mmHg 74%
03:00 +16°C° 0 mm 1 m/s 762 mmHg 75%
04:00 +16°C° 0.2 mm 2 m/s 762 mmHg 75%
05:00 +17°C° 0.2 mm 2 m/s 762 mmHg 74%
06:00 +18°C° 0.2 mm 2 m/s 762 mmHg 73%
07:00 +20°C° 0 mm 3 m/s 762 mmHg 65%
08:00 +21°C° 0 mm 3 m/s 762 mmHg 57%
09:00 +23°C° 0 mm 4 m/s 762 mmHg 49%
10:00 +25°C° 0 mm 4 m/s 762 mmHg 46%
11:00 +26°C° 0 mm 5 m/s 761 mmHg 42%
12:00 +27°C° 0 mm 5 m/s 761 mmHg 38%
13:00 +27°C° 0 mm 5 m/s 761 mmHg 39%
14:00 +27°C° 0 mm 5 m/s 761 mmHg 40%
15:00 +27°C° 0 mm 5 m/s 761 mmHg 41%
16:00 +26°C° 0 mm 5 m/s 760 mmHg 47%
17:00 +25°C° 0 mm 4 m/s 760 mmHg 53%
18:00 +24°C° 0 mm 3 m/s 760 mmHg 58%
19:00 +22°C° 0 mm 3 m/s 760 mmHg 60%
20:00 +20°C° 0 mm 3 m/s 759 mmHg 62%
21:00 +19°C° 0 mm 3 m/s 759 mmHg 64%
22:00 +18°C° 0 mm 3 m/s 759 mmHg 65%
23:00 +18°C° 0 mm 3 m/s 759 mmHg 65%
Arată mai mult

Formular de consimțământ

Meteoprog și furnizorii noștri de servicii pot stoca și accesa date personale, precum cookies, identificatori de dispozitiv sau alte tehnologii similare pe dispozitivul dumneavoastră și procesa astfel de date pentru a personaliza conținutul și reclamele, dar și pentru a oferi caracteristici de social media și pentru a analiza traficul.

  • Stocarea și/sau accesarea informațiilor pe dispozitivul dumneavoastră

    Cookies, identificatori de dispozitiv sau alte informații pot fi stocate sau accesate pe dispozitiv în scopurile indicate mai sus.

  • Reclame și conținut personalizat, evaluarea reclamelor și a conținutului, informații despre audiențe și dezvoltarea produselor

    Reclamele și conținutul pot fi personalizate pe baza unui profil. Pot fi adăugate date suplimentare pentru a personaliza mai bine reclamele și conținutul. Performanța reclamelor și conținutului poate fi măsurată. Pot fi obținute informații despre utilizatorii care au văzut reclamele și conținutul. Aceste date pot fi utilizate pentru a dezvolta sau îmbunătăți experiența utilizatorilor, sistemele și software-ul.

Dând clic pe ‘Sunt de acord’, permiteți utilizarea cookie-urilor menționate, a identificatorilor de dispozitiv, balizelor web sau altor tehnologii similare. Setările pot fi modificate din browser-ul dispozitivului dumneavoastră.

În anumite scopuri, interesele legitime pot prima asupra consimțământului. Puteți citi mai multe informații în acest sens în Politica privind Confidențialitatea Datelor și Cookie.